{"data":{"norad_id":67506,"intl_designator":"2026-012P","name":"STARLINK-36553","alt_names":[],"object_type":"PAYLOAD","status":"ACTIVE","operator":null,"country":"US","launch_date":"2026-01-18","launch_site_code":"AFETR","launch_vehicle":null,"mission":null,"orbit_class":"UNKNOWN","rcs_meters":null,"size_class":null,"mass_kg":null,"dimensions":null,"purposes":["comms"],"wikipedia_slug":null,"has_3d_model":false,"image_url":null,"decayed_at":null,"tle_current":{"epoch":"2026-09-19T09:56:29.292288Z","epoch_age_seconds":166070,"freshness":"FRESH","line1":"1 67506U 26012P   26262.41422792  .00009972  00000+0  37136-3 0  9993","line2":"2 67506  43.0056 299.9844 0002030 285.9764  74.0864 15.27583960 37392","mean_motion":15.2758396,"eccentricity":0.000203,"inclination_deg":43.0056,"raan_deg":299.9844,"arg_perigee_deg":285.9764,"mean_anomaly_deg":74.0864,"bstar":0.00037136,"rev_number":3739,"period_min":94.266504343238,"perigee_km":481.64442003027,"apogee_km":484.43005677106,"semimajor_km":6861.1742384007,"source":"CELESTRAK","updated_at":"2026-09-20T09:00:43.559899Z"}}}